Weather History for KIBM - October, 2013

Change the Weather History Date:

Saturday, October 5, 2013

  Actual Average (KSNY) Record (KSNY)
Temperature  
Mean Temperature 38 °F 54 °F  
Max Temperature 46 °F 69 °F 88 °F (1963)
Min Temperature 30 °F 39 °F 15 °F (1952)
Degree Days  
Heating Degree Days 27 11  
Month to date heating degree days 52  
Since 1 July heating degree days 192  
Cooling Degree Days 0 0  
Month to date cooling degree days 1  
Year to date cooling degree days 827  
Moisture  
Dew Point 26 °F    
Average Humidity 64    
Maximum Humidity 82    
Minimum Humidity 42    
Precipitation  
Precipitation 0.00 in 0.04 in 1.21 in (1951)
Month to date precipitation 0.20  
Year to date precipitation 16.61  
Sea Level Pressure  
Sea Level Pressure 30.11 in    
Wind  
Wind Speed 28 mph (NW)    
Max Wind Speed 39 mph    
Max Gust Speed 50 mph    
Visibility 10 miles    
Events      
T = Trace of Precipitation, MM = Missing Value Source: NWS Daily Summary

Daily Weather History Graph

Daily Weather History Graph

Search for Another Location

Airport or City:

Trip Planner

Search our weather history database for the weather conditions in past years. The results will help you decide how hot, cold, wet, or windy it might be!

Date:

Astronomy

Oct. 05, 2013 Rise Set
Actual Time 7:55 AM CDT 7:29 PM CDT
Civil Twilight 7:28 AM CDT 7:56 PM CDT
Nautical Twilight 6:56 AM CDT 8:28 PM CDT
Astronomical Twilight 6:24 AM CDT 9:00 PM CDT
Moon 8:38 AM CDT (10/5) 7:49 PM CDT (10/5)
Length of Visible Light 12h 28m
Length of Day
11h 33m
New Moon, 1% of the Moon is Illuminated
Oct 5
New Moon
Oct 11
First Quarter
Oct 18
Full
Oct 26
Last Quarter
Nov 3
New

Hourly Weather History & Observations

Time (CDT) Temp. Windchill Dew Point Humidity Pressure Visibility Wind Dir Wind Speed Gust Speed Precip Events Conditions
12:15 AM 30.7 °F 15.7 °F 25.7 °F 82% 30.09 in 10.0 mi NNW 31.1 mph 43.7 mph N/A   Clear
12:35 AM 30.6 °F 14.6 °F 25.5 °F 82% 30.08 in 10.0 mi NW 35.7 mph 42.6 mph N/A   Clear
12:55 AM 30.9 °F 16.2 °F 24.8 °F 78% 30.09 in 10.0 mi NW 29.9 mph 40.3 mph N/A   Clear
1:15 AM 31.1 °F 16.4 °F 25.2 °F 79% 30.09 in 10.0 mi NW 29.9 mph 41.4 mph N/A   Clear
1:35 AM 31.1 °F 16.6 °F 25.5 °F 80% 30.08 in 10.0 mi NW 28.8 mph 35.7 mph N/A   Scattered Clouds
1:55 AM 31.5 °F 16.2 °F 25.7 °F 79% 30.08 in 10.0 mi NW 33.4 mph 41.4 mph N/A   Clear
2:15 AM 31.8 °F 17.2 °F 25.7 °F 78% 30.09 in 10.0 mi NW 31.1 mph 39.1 mph N/A   Mostly Cloudy
2:35 AM 31.8 °F 17.6 °F 25.7 °F 78% 30.10 in 10.0 mi NW 28.8 mph 38.0 mph N/A   Overcast
2:55 AM 31.8 °F 18.7 °F 25.9 °F 79% 30.10 in 10.0 mi NW 24.2 mph 34.5 mph N/A   Overcast
3:15 AM 31.8 °F 16.9 °F 25.5 °F 78% 30.10 in 10.0 mi NW 32.2 mph 42.6 mph N/A   Overcast
3:35 AM 31.8 °F 17.2 °F 25.3 °F 77% 30.08 in 10.0 mi NW 31.1 mph 39.1 mph N/A   Overcast
3:55 AM 31.5 °F 16.4 °F 25.0 °F 77% 30.07 in 10.0 mi NW 32.2 mph 43.7 mph N/A   Mostly Cloudy
4:15 AM 31.6 °F 15.5 °F 24.8 °F 76% 30.06 in 10.0 mi NW 39.1 mph 48.3 mph N/A   Scattered Clouds
4:35 AM 32.0 °F 17.0 °F 24.8 °F 75% 30.08 in 10.0 mi NW 33.4 mph 49.5 mph N/A   Mostly Cloudy
4:55 AM 32.2 °F 18.4 °F 24.8 °F 74% 30.10 in 10.0 mi NW 27.6 mph 48.3 mph N/A   Overcast
5:15 AM 32.4 °F 17.5 °F 25.2 °F 75% 30.10 in 10.0 mi WNW 33.4 mph 40.3 mph N/A   Overcast
5:35 AM 32.9 °F 18.9 °F 24.8 °F 72% 30.09 in 10.0 mi WNW 29.9 mph 42.6 mph N/A   Overcast
5:55 AM 32.5 °F 18.8 °F 25.3 °F 75% 30.10 in 10.0 mi NW 27.6 mph 41.4 mph N/A   Overcast
6:15 AM 32.4 °F 18.4 °F 25.3 °F 75% 30.09 in 10.0 mi NW 28.8 mph 35.7 mph N/A   Overcast
6:35 AM 32.4 °F 18.9 °F 25.7 °F 76% 30.09 in 10.0 mi NW 26.5 mph 39.1 mph N/A   Overcast
6:55 AM 32.5 °F 19.1 °F 26.2 °F 78% 30.09 in 10.0 mi NW 26.5 mph 40.3 mph N/A   Overcast
7:15 AM 32.9 °F 19.6 °F 26.2 °F 76% 30.09 in 10.0 mi NW 26.5 mph 35.7 mph N/A   Overcast
7:35 AM 33.1 °F 20.3 °F 26.1 °F 75% 30.08 in 10.0 mi NW 24.2 mph 36.8 mph N/A   Overcast
7:55 AM 33.6 °F 20.8 °F 25.7 °F 73% 30.08 in 10.0 mi NW 25.3 mph 35.7 mph N/A   Overcast
8:15 AM 33.8 °F 21.3 °F 25.5 °F 72% 30.09 in 10.0 mi NW 24.2 mph 38.0 mph N/A   Overcast
8:35 AM 34.0 °F 20.5 °F 25.3 °F 71% 30.08 in 10.0 mi NW 28.8 mph 38.0 mph N/A   Overcast
8:55 AM 34.0 °F 20.5 °F 25.2 °F 70% 30.09 in 10.0 mi NW 28.8 mph 41.4 mph N/A   Overcast
9:15 AM 33.6 °F 21.9 °F 26.1 °F 74% 30.10 in 10.0 mi NW 20.7 mph 26.5 mph N/A   Overcast
9:35 AM 33.3 °F 20.9 °F 25.3 °F 73% 30.11 in 10.0 mi WNW 23.0 mph 32.2 mph N/A   Overcast
9:55 AM 33.8 °F 22.8 °F 25.2 °F 71% 30.12 in 10.0 mi NW 18.4 mph 32.2 mph N/A   Overcast
10:15 AM 35.4 °F 23.0 °F 26.1 °F 69% 30.12 in 10.0 mi NW 26.5 mph 41.4 mph N/A   Overcast
10:35 AM 36.7 °F 24.9 °F 26.1 °F 65% 30.12 in 10.0 mi NW 25.3 mph 40.3 mph N/A   Scattered Clouds
10:55 AM 38.1 °F 27.1 °F 26.8 °F 64% 30.13 in 10.0 mi NW 24.2 mph 33.4 mph N/A   Clear
11:15 AM 39.2 °F 28.3 °F 26.6 °F 61% 30.13 in 10.0 mi WNW 25.3 mph 41.4 mph N/A   Clear
11:35 AM 39.6 °F 29.2 °F 27.0 °F 61% 30.13 in 10.0 mi NW 23.0 mph 35.7 mph N/A   Clear
11:55 AM 40.1 °F 29.5 °F 27.0 °F 59% 30.13 in 10.0 mi NW 25.3 mph 34.5 mph N/A   Clear
12:15 PM 40.5 °F 29.5 °F 26.8 °F 58% 30.13 in 10.0 mi NW 27.6 mph 33.4 mph N/A   Clear
12:35 PM 41.0 °F 29.5 °F 25.5 °F 54% 30.13 in 10.0 mi NW 32.2 mph 40.3 mph N/A   Clear
12:55 PM 41.7 °F 30.6 °F 26.8 °F 55% 30.13 in 10.0 mi NW 31.1 mph 40.3 mph N/A   Clear
1:15 PM 42.3 °F 32.8 °F 27.1 °F 55% 30.14 in 10.0 mi NW 23.0 mph 38.0 mph N/A   Clear
1:35 PM 42.3 °F 32.6 °F 25.5 °F 52% 30.13 in 10.0 mi NW 24.2 mph 36.8 mph N/A   Clear
1:55 PM 41.9 °F 31.1 °F 22.1 °F 45% 30.12 in 10.0 mi NW 29.9 mph 41.4 mph N/A   Clear
2:15 PM 43.9 °F 33.9 °F 26.2 °F 50% 30.11 in 10.0 mi NW 28.8 mph 35.7 mph N/A   Clear
2:35 PM 43.7 °F 33.9 °F 25.7 °F 49% 30.11 in 10.0 mi NW 27.6 mph 39.1 mph N/A   Clear
2:55 PM 44.6 °F 34.7 °F 23.7 °F 44% 30.11 in 10.0 mi NW 29.9 mph 38.0 mph N/A   Clear
3:15 PM 45.5 °F 36.3 °F 26.4 °F 47% 30.10 in 10.0 mi NW 27.6 mph 41.4 mph N/A   Clear
3:35 PM 45.5 °F 36.1 °F 24.3 °F 43% 30.10 in 10.0 mi NW 28.8 mph 40.3 mph N/A   Clear
3:55 PM 46.4 °F 37.9 °F 25.0 °F 43% 30.09 in 10.0 mi NW 25.3 mph 33.4 mph N/A   Clear
4:15 PM 45.9 °F 37.2 °F 27.0 °F 48% 30.10 in 10.0 mi NW 25.3 mph 39.1 mph N/A   Clear
4:35 PM 45.9 °F 37.0 °F 26.6 °F 47% 30.10 in 10.0 mi NW 26.5 mph 39.1 mph N/A   Clear
4:55 PM 45.7 °F 36.9 °F 26.1 °F 46% 30.10 in 10.0 mi NW 25.3 mph 33.4 mph N/A   Clear
5:15 PM 45.9 °F 37.0 °F 26.2 °F 46% 30.10 in 10.0 mi NW 26.5 mph 35.7 mph N/A   Clear
5:35 PM 45.5 °F 35.8 °F 24.6 °F 44% 30.09 in 10.0 mi NW 31.1 mph 40.3 mph N/A   Clear
5:55 PM 45.0 °F 35.1 °F 22.8 °F 42% 30.10 in 10.0 mi NW 31.1 mph 39.1 mph N/A   Clear
6:15 PM 44.6 °F 35.9 °F 23.0 °F 43% 30.11 in 10.0 mi NW 23.0 mph 34.5 mph N/A   Clear
6:35 PM 43.9 °F 35.7 °F 22.8 °F 43% 30.09 in 10.0 mi NW 19.6 mph 28.8 mph N/A   Clear
6:55 PM 43.5 °F 35.2 °F 26.1 °F 50% 30.09 in 10.0 mi NNW 19.6 mph 29.9 mph N/A   Clear
7:15 PM 42.8 °F 33.8 °F 28.4 °F 57% 30.09 in 10.0 mi NW 21.9 mph 28.8 mph N/A   Clear
7:35 PM 40.6 °F 32.3 °F 29.3 °F 64% 30.10 in 10.0 mi NW 16.1 mph 25.3 mph N/A   Clear
7:55 PM 39.6 °F 31.3 °F 29.7 °F 68% 30.11 in 10.0 mi NW 15.0 mph 23.0 mph N/A   Clear
8:15 PM 39.2 °F 31.2 °F 29.3 °F 68% 30.12 in 10.0 mi NW 13.8 mph 21.9 mph N/A   Clear
8:35 PM 38.5 °F 30.7 °F 29.3 °F 70% 30.13 in 10.0 mi NW 12.7 mph - N/A   Clear
8:55 PM 38.7 °F 30.9 °F 28.9 °F 68% 30.14 in 10.0 mi NW 12.7 mph 17.3 mph N/A   Clear
9:15 PM 37.9 °F 30.0 °F 28.8 °F 70% 30.13 in 10.0 mi WNW 12.7 mph - N/A   Clear
9:35 PM 38.5 °F 29.2 °F 28.4 °F 67% 30.14 in 10.0 mi WNW 17.3 mph - N/A   Clear
9:55 PM 38.3 °F 29.0 °F 28.2 °F 67% 30.14 in 10.0 mi WNW 17.3 mph - N/A   Clear
10:15 PM 39.2 °F 29.3 °F 27.9 °F 64% 30.13 in 10.0 mi WNW 20.7 mph 26.5 mph N/A   Clear
10:35 PM 39.7 °F 30.3 °F 27.7 °F 62% 30.14 in 10.0 mi WNW 19.6 mph 28.8 mph N/A   Clear
10:55 PM 40.6 °F 31.2 °F 27.5 °F 59% 30.15 in 10.0 mi NW 20.7 mph 27.6 mph N/A   Clear
11:15 PM 40.8 °F 31.4 °F 27.5 °F 59% 30.15 in 10.0 mi NW 20.7 mph 26.5 mph N/A   Clear
11:35 PM 41.0 °F 31.4 °F 27.5 °F 59% 30.14 in 10.0 mi NW 21.9 mph 28.8 mph N/A   Clear
11:55 PM 41.2 °F 31.6 °F 27.9 °F 59% 30.13 in 10.0 mi NW 21.9 mph 29.9 mph N/A   Clear